Location: Cerezo de Arriba
(41.2389°N, 3.5585°W)
Time: 04:14:40
(UTC+00:00)

SL-16 R/B - Pass Details

Date: 19 May 2025
Orbit: 841 x 844 km, 71.0° (Epoch: 23 June)

Event Time Altitude Azimuth Distance (km) Brightness Sun altitude
Rises 22:42:14 0° 344° (NNW) 3,411 6.7 -25.4°
Reaches altitude 10° 22:44:59 10° 355° (N) 2,472 5.6 -25.6°
Maximum altitude 22:49:57 31° 56° (NE) 1,458 3.5 -26.0°
Enters shadow 22:51:17 28° 81° (E) 1,551 3.4 -26.1°
